IXPE

Last updated on Sun Jun 21 2026 00:03:39 GMT+0000 (Coordinated Universal Time)

1 49954U 21121A 26171.41668980 .00008579 00000+0 45370-3 0 9997 2 49954 0.2296 293.4932 0007192 124.1849 157.3401 15.10273055 5456
UTC large
Height (km)
Speed (km/s)
/
Latitude / Longitude
Inclination (degrees)
Orbital Period (minutes)
Azimuth
Elevation
Range (km)
Doppler Factor

Next 0 passes for location: London (51.5072 / 0.1276)

No passes found over London.
IXPE